HECAHEGN

Guest
Details From HECA - Cairo Intl
To HEGN - HURGHADA INTL
Flight Number -
Tags decoded
Created
Modified
Stats Distance 217 nm / 402 km
Max Altitude 0 ft / 0 m
Waypoints 2
Social Downloads 1
Likes 0
Share VATSIM

Download

Looking for another format? Having issues loading an existing format? Contact us
Advertisement - Login to hide

Notes

Requested: HECA HEGN

Route

HECA HEGN

ID Type Via Altitude Latitude Longitude Leg Dist Tot Dist Heading (true) Name
O HECA APT - 0 ft / 0 m 30.12181˚ 31.40610˚ - 0 nm - Cairo Intl
O HEGN APT - 0 ft / 0 m 27.17831˚ 33.79940˚ 217 nm 217 nm 144° / 145° HURGHADA INTL

Altitude Profile

Advertisement - Login to hide

Weather


0- 5 10 15 20 25 30 35+ Temperature / ° C

Clouds and Precipitation
Forecast for 2017-12-13 12:00 UTC. Updated 33 minutes ago

Ground ~20,000 ft ~40,000 ft Winds

HECA

Details ICAO HECA (CAI)
Name Cairo Intl
Region Egypt
Timezone Africa/Cairo (UTC+2.0)
Stats Elevation 382 ft / 116 m (AMSL)
Location 30.121808° 31.406095°
Runways 3
Magnetic Variation 4.403° E

METAR

HECA 130730Z 34006KT 3000 BR NSC 18/15 Q1022 BECMG 4000

Decode

TAF

TAF HECA 130500Z 1306/1412 VRB03KT 4000 BR NSC TEMPO 1306/1309 2000

Decode

Departure Runways

ID Width Length Bearing (true) Bearing (mag) Surface Threshold Offset Overrun Length
05L 197 ft / 60 m 10,833 ft / 3,302 m 49.29° 44.89° Asphalt 0 ft / 0 m 185 ft / 56 m
05R 197 ft / 60 m 13,126 ft / 4,001 m 49.03° 44.63° Asphalt 0 ft / 0 m 216 ft / 66 m
16 197 ft / 60 m 10,456 ft / 3,187 m 162.61° 158.21° Asphalt 0 ft / 0 m 125 ft / 38 m
23L 197 ft / 60 m 13,126 ft / 4,001 m 229.05° 224.65° Asphalt 0 ft / 0 m 225 ft / 69 m
23R 197 ft / 60 m 10,833 ft / 3,302 m 229.30° 224.90° Asphalt 0 ft / 0 m 185 ft / 56 m
34 197 ft / 60 m 10,456 ft / 3,187 m 342.61° 338.21° Asphalt 0 ft / 0 m 195 ft / 59 m

HEGN

Details ICAO HEGN (HRG)
Name HURGHADA INTL
Region Egypt
Timezone Africa/Cairo (UTC+2.0)
Stats Elevation 52 ft / 16 m (AMSL)
Location 27.178308° 33.799397°
Runways 1
Magnetic Variation 4.211° E

METAR

HEGN 130700Z 31014KT 6000 NSC 20/12 Q1019 NOSIG

Decode

TAF

TAF HEGN 130500Z 1306/1412 36010G22KT CAVOK

Decode

Destination Runways

ID Width Length Bearing (true) Bearing (mag) Surface Threshold Offset Overrun Length
16 148 ft / 45 m 13,169 ft / 4,014 m 165.29° 161.08° Asphalt 985 ft / 300 m 0 ft / 0 m
34 148 ft / 45 m 13,169 ft / 4,014 m 345.29° 341.08° Asphalt 0 ft / 0 m 200 ft / 61 m

Approach Navaids

Runway Type Ident Frequency Range Bearing (true) Bearing (mag) Slope Elevation
34 Localiser HIL 110.30 MHz 18 nm / 33 km 347.43° 343.22° - 56 ft / 17 m (AMSL)
34 Glidescope HIL 110.30 MHz 10 nm / 19 km 345.29° 341.08° 3.00° 64 ft / 20 m (AMSL)
34 DME HIL 110.30 MHz 18 nm / 33 km - - - 30 ft / 9 m (AMSL)

Popular Alternatives